Location: Luxembourg
(49.6117°N, 6.1300°E)
Time: 10:52:30
(UTC+02:00)

Envisat - Visible Passes

Search period start: 07 October 2022 00:00
Search period end: 17 October 2022 00:00
Orbit: 764 x 765 km, 98.2° (Epoch: 06 October)

Date Brightness Start Highest point End Pass type
(mag) Time Alt. Az. Time Alt. Az. Time Alt. Az.
07 Oct 4.9 05:10:23 10° NNE 05:14:47 29° E 05:19:10 10° SSE visible
07 Oct 3.3 06:49:08 10° N 06:53:57 44° WNW 06:58:46 10° SW visible
08 Oct 5.8 04:34:39 10° NE 04:37:23 14° E 04:40:07 10° ESE visible
08 Oct 2.9 06:11:59 10° NNE 06:17:07 87° WNW 06:22:11 10° SSW visible
09 Oct 4.0 05:35:09 10° NNE 05:40:03 46° E 05:44:56 10° S visible
09 Oct 3.9 07:14:32 10° N 07:18:52 29° WNW 07:23:11 10° WSW visible
10 Oct 5.2 04:58:45 10° NE 05:02:48 23° E 05:06:49 10° SE visible
10 Oct 3.1 06:37:10 10° N 06:42:09 55° WNW 06:47:05 10° SW visible
11 Oct 6.0 04:23:46 10° ENE 04:25:20 11° E 04:26:55 10° ESE visible
11 Oct 3.1 06:00:07 10° NNE 06:05:14 76° ESE 06:10:18 10° S visible
12 Oct 4.4 05:23:23 10° NNE 05:28:07 37° E 05:32:48 10° SSE visible
12 Oct 3.6 07:02:30 10° N 07:07:05 35° WNW 07:11:39 10° SW visible
13 Oct 5.5 04:47:13 10° NE 04:50:47 19° E 04:54:21 10° SE visible
13 Oct 2.9 06:25:14 10° N 06:30:18 68° WNW 06:35:20 10° SSW visible
14 Oct 3.5 05:48:16 10° NNE 05:53:20 61° E 05:58:21 10° S visible
15 Oct 4.8 05:11:40 10° NNE 05:16:09 30° E 05:20:36 10° SSE visible
15 Oct 3.4 06:50:30 10° N 06:55:18 43° WNW 07:00:03 10° SW visible
16 Oct 5.8 04:35:50 10° NE 04:38:45 15° E 04:41:39 10° ESE visible
16 Oct 2.9 06:13:19 10° NNE 06:18:26 84° WNW 06:23:32 10° SSW visible
